[[{"header":{"parameterUnit":"m.s-1","parameterCategory":1,"la1":30.2991,"la2":30.254,"lo1":-89.0895,"lo2":-89.0444,"dy":0.0017,"dx":0.0017,"nx":28,"ny":28,"refTime":"2024-03-14T09:00:00:Z","depth":0,"parameterNumber":2,"parameterNumberName":"U-component_of_WINDS"},"data":[0,0,0,0,0,0,0,0,0,0,0,0,0,0,0,0,0,0,0,0,0,0,0,0,0,0,0,0,0,0,0,0,0,0,0,0,0,0,0,0,0,0,0,0,0,0,0,0,0,0,0,0,0,0,0,0,0,0,-1.9268,-1.9268,0,-1.9255,-1.9255,-1.9255,-1.9231,-1.923,-1.923,-1.9229,-1.9215,-1.9215,-1.9215,0,0,0,0,0,0,0,0,0,0,0,0,0,-1.9272,-1.9272,-1.9268,-1.9268,-1.9267,-1.9255,-1.9255,-1.9255,-1.9231,-1.923,-1.9229,-1.9229,-1.9215,-1.9215,-1.9215,0,0,0,0,0,0,0,0,0,0,0,0,0,-1.9265,-1.9272,-1.9268,-1.9254,-1.9253,-1.9255,-1.9255,-1.9254,-1.9231,-1.923,-1.9229,-1.9229,-1.9215,-1.9215,-1.9215,-1.923,0,0,-1.9215,-1.9215,0,0,0,0,0,0,0,0,-1.9266,-1.9265,-1.9256,-1.9255,-1.9253,-1.9244,-1.9251,-1.9246,-1.9231,-1.9239,-1.9229,-1.9228,-1.9225,-1.9224,-1.9223,-1.9229,-1.9228,-1.9215,-1.9215,-1.9216,-1.9216,0,0,0,0,0,0,0,-1.9266,-1.9266,-1.9263,-1.9256,-1.9254,-1.9248,-1.9247,-1.925,-1.9236,-1.9238,-1.9236,-1.9235,-1.9224,-1.9223,-1.9223,-1.9228,-1.9215,-1.9215,-1.9216,-1.9216,-1.9245,-1.9246,0,0,0,0,0,0,-1.9269,-1.9266,-1.9263,-1.9262,-1.9258,-1.9249,-1.9247,-1.9247,-1.9236,-1.9234,-1.9236,-1.9234,-1.9224,-1.9223,-1.9222,-1.9238,-1.9216,-1.9216,-1.9216,-1.9244,-1.9245,-1.9246,0,0,0,0,0,0,-1.9269,-1.9269,-1.9264,-1.9264,-1.9263,-1.925,-1.925,-1.9248,-1.9247,-1.9234,-1.9232,-1.9238,-1.9223,-1.9222,-1.9228,-1.9237,-1.9216,-1.9216,-1.9244,-1.9245,-1.9246,-1.927,0,0,0,0,0,0,-1.9269,-1.9269,-1.9274,-1.9264,-1.9263,-1.927,-1.9251,-1.9248,-1.9247,-1.9245,-1.9235,-1.9233,-1.9222,-1.9228,-1.9228,-1.9237,-1.9216,-1.9243,-1.9244,-1.9245,-1.9268,-1.9272,-1.9275,0,0,0,0,0,-1.9269,-1.9281,-1.9274,-1.9274,-1.9269,-1.927,-1.9269,-1.9257,-1.9248,-1.9253,-1.9245,-1.9233,-1.9237,-1.9229,-1.9229,-1.9238,-1.9242,-1.9244,-1.9245,-1.9267,-1.9271,-1.9275,0,0,0,0,0,0,-1.9292,-1.9279,-1.9272,-1.9281,-1.9277,-1.9266,-1.9272,-1.9262,-1.926,-1.9258,-1.9243,-1.9241,-1.9249,-1.9244,-1.9236,-1.9251,-1.9237,-1.9239,-1.9254,-1.9258,-1.9261,-1.9261,-1.9216,0,0,0,0,0,-1.9298,-1.93,-1.9289,-1.9298,-1.9297,-1.9285,-1.9285,-1.9276,-1.9271,-1.9269,-1.9262,-1.9257,-1.9257,-1.9258,-1.9257,-1.9268,-1.9265,-1.9274,-1.9278,-1.928,-1.9281,-1.9287,-1.929,-1.9252,-1.9252,-1.9252,0,0,-1.931,-1.9304,-1.9306,-1.9302,-1.9298,-1.9301,-1.9283,-1.9286,-1.9288,-1.9269,-1.9274,-1.9269,-1.9263,-1.9272,-1.9275,-1.9268,-1.9292,-1.9282,-1.9285,-1.9284,-1.9289,-1.9293,-1.9296,-1.9253,-1.9253,-1.9252,0,0,-1.9333,-1.9329,-1.9336,-1.9333,-1.9327,-1.9319,-1.9321,-1.9312,-1.9308,-1.9313,-1.9299,-1.9301,-1.9302,-1.9298,-1.9296,-1.932,-1.9309,-1.9321,-1.9337,-1.9342,-1.9345,-1.9348,-1.9356,-1.9359,-1.9322,-1.9322,-1.9322,0,-1.9349,-1.9352,-1.9341,-1.9345,-1.9344,-1.9328,-1.9335,-1.9332,-1.9326,-1.9326,-1.9318,-1.9319,-1.9314,-1.9322,-1.9328,-1.9327,-1.9328,-1.9321,-1.9346,-1.9348,-1.9351,-1.9358,-1.9361,-1.9324,-1.9324,-1.9323,-1.9323,0,-1.9372,-1.9374,-1.938,-1.9376,-1.9375,-1.9381,-1.937,-1.9372,-1.9364,-1.9357,-1.9363,-1.9357,-1.9354,-1.9356,-1.9348,-1.9363,-1.9358,-1.9349,-1.9334,-1.9356,-1.9362,-1.9365,-1.9326,-1.9325,-1.9325,-1.9324,0,0,-1.9406,-1.9396,-1.9399,-1.9397,-1.939,-1.9392,-1.9397,-1.9395,-1.9397,-1.9394,-1.9398,-1.9399,-1.9391,-1.9389,-1.9381,-1.9386,-1.9404,-1.9375,-1.9375,-1.938,-1.942,-1.9426,-1.9429,-1.9398,-1.9398,-1.9399,-1.942,0,-1.9427,-1.9435,-1.9425,-1.9435,-1.9437,-1.9424,-1.9429,-1.9425,-1.942,-1.9421,-1.9415,-1.9416,-1.9405,-1.9403,-1.9408,-1.9401,-1.9412,-1.94,-1.94,-1.94,-1.94,-1.9433,-1.9439,-1.9459,-1.9422,-1.9423,-1.9423,0,-1.9451,-1.945,-1.9461,-1.9454,-1.9455,-1.9459,-1.9457,-1.9458,-1.9455,-1.945,-1.9449,-1.944,-1.9444,-1.9432,-1.9438,-1.943,-1.943,-1.9427,-1.9428,-1.9426,-1.9412,-1.943,-1.9465,-1.9467,-1.9427,-1.9427,-1.9426,0,-1.9475,-1.9476,-1.9482,-1.9481,-1.9474,-1.9477,-1.9474,-1.947,-1.947,-1.9468,-1.9468,-1.9468,-1.9467,-1.9467,-1.9457,-1.9449,-1.9465,-1.9452,-1.9461,-1.9461,-1.9463,-1.9462,-1.9496,-1.9466,-1.9466,-1.9465,-1.9465,0,-1.9498,-1.9504,-1.9492,-1.9496,-1.9503,-1.9493,-1.95,-1.9496,-1.9493,-1.9495,-1.9484,-1.9487,-1.9475,-1.9477,-1.947,-1.9476,-1.9476,-1.9472,-1.947,-1.9472,-1.9473,-1.9471,-1.9469,-1.9466,-1.9466,-1.9466,-1.9466,0,-1.9524,-1.9516,-1.9522,-1.9515,-1.9514,-1.9519,-1.9513,-1.9516,-1.9511,-1.9515,-1.9515,-1.9506,-1.9508,-1.9499,-1.9499,-1.9494,-1.9503,-1.9499,-1.9504,-1.9503,-1.9512,-1.951,-1.9544,-1.9548,-1.9516,-1.9517,-1.9517,0,-1.9538,-1.9543,-1.9537,-1.9538,-1.9536,-1.9538,-1.9538,-1.9529,-1.9529,-1.9526,-1.953,-1.9531,-1.953,-1.9533,-1.9527,-1.9527,-1.9522,-1.9534,-1.9522,-1.9524,-1.9521,-1.952,-1.952,-1.9536,-1.9536,-1.9537,-1.9537,0,-1.9564,-1.956,-1.9561,-1.9561,-1.9562,-1.9561,-1.9559,-1.9561,-1.9551,-1.9553,-1.9554,-1.9554,-1.9555,-1.9555,-1.9554,-1.9551,-1.9542,-1.9541,-1.9543,-1.9545,-1.9547,-1.9545,-1.951,-1.954,-1.954,-1.9539,-1.9539,-1.9539,-1.9584,-1.9587,-1.9584,-1.9585,-1.9583,-1.9583,-1.9585,-1.9581,-1.9582,-1.9582,-1.9576,-1.9579,-1.9576,-1.9574,-1.9572,-1.9574,-1.9568,-1.9571,-1.9571,-1.9572,-1.9573,-1.9548,-1.9574,-1.9574,-1.9574,-1.9574,-1.9573,0,-1.9608,-1.9606,-1.9607,-1.9606,-1.9607,-1.96,-1.9598,-1.9599,-1.9602,-1.96,-1.9601,-1.9603,-1.9604,-1.9598,-1.9599,-1.9601,-1.9597,-1.9601,-1.96,-1.96,-1.9579,-1.9576,-1.9605,-1.9605,-1.9605,-1.9605,-1.9605,-1.9605,-1.9621,-1.9626,-1.9623,-1.9628,-1.9625,-1.9628,-1.9627,-1.9627,-1.9625,-1.9628,-1.9629,-1.9626,-1.9622,-1.9623,-1.9623,-1.9622,-1.9622,-1.9627,-1.9624,-1.9604,-1.9601,-1.9598,-1.9596,-1.9628,-1.9628,-1.9645,-1.9645,-1.9645]},{"header":{"parameterUnit":"m.s-1","parameterCategory":1,"la1":30.2991,"la2":30.254,"lo1":-89.0895,"lo2":-89.0444,"dy":0.0017,"dx":0.0017,"nx":28,"ny":28,"refTime":"2024-03-14T09:00:00:Z","depth":0,"parameterNumber":3,"parameterNumberName":"V-component_of_WINDS"},"data":[0,0,0,0,0,0,0,0,0,0,0,0,0,0,0,0,0,0,0,0,0,0,0,0,0,0,0,0,0,0,0,0,0,0,0,0,0,0,0,0,0,0,0,0,0,0,0,0,0,0,0,0,0,0,0,0,0,0,1.7339,1.734,0,1.7408,1.7409,1.741,1.742,1.7419,1.7419,1.7418,1.7487,1.7489,1.7492,0,0,0,0,0,0,0,0,0,0,0,0,0,1.7215,1.7218,1.7339,1.734,1.7341,1.7408,1.7409,1.741,1.742,1.7419,1.7419,1.7418,1.7486,1.7489,1.7492,0,0,0,0,0,0,0,0,0,0,0,0,0,1.7275,1.7218,1.7339,1.7354,1.7356,1.7408,1.7409,1.741,1.742,1.7419,1.7418,1.7418,1.7485,1.7489,1.7492,1.7533,0,0,1.7503,1.7505,0,0,0,0,0,0,0,0,1.7272,1.728,1.7351,1.7353,1.7356,1.7405,1.739,1.7451,1.7421,1.7396,1.7418,1.7417,1.746,1.7466,1.7481,1.7536,1.7539,1.7504,1.7506,1.7507,1.7508,0,0,0,0,0,0,0,1.7268,1.7277,1.7366,1.7352,1.7355,1.7357,1.7365,1.7402,1.7432,1.7398,1.7399,1.7407,1.7461,1.7477,1.7482,1.754,1.7503,1.7507,1.7509,1.751,1.7634,1.7635,0,0,0,0,0,0,1.7261,1.7273,1.7364,1.7368,1.7311,1.736,1.7368,1.739,1.7432,1.7438,1.7408,1.7407,1.7471,1.7478,1.7485,1.7536,1.7507,1.7511,1.7513,1.7632,1.7634,1.7635,0,0,0,0,0,0,1.7258,1.7269,1.7361,1.7321,1.7333,1.7363,1.7387,1.7392,1.7408,1.7439,1.7445,1.7419,1.7471,1.748,1.7521,1.7539,1.7512,1.7515,1.7631,1.7633,1.7634,1.7639,0,0,0,0,0,0,1.7255,1.7268,1.7284,1.7322,1.7335,1.7397,1.7388,1.7394,1.7414,1.7414,1.7451,1.7456,1.7471,1.7516,1.7525,1.7543,1.7518,1.763,1.7632,1.7634,1.7637,1.7641,1.7643,0,0,0,0,0,1.725,1.7282,1.7285,1.7296,1.7356,1.7398,1.7406,1.7423,1.7415,1.7432,1.7452,1.7455,1.7535,1.752,1.753,1.755,1.7629,1.7631,1.7634,1.7636,1.764,1.7643,0,0,0,0,0,0,1.7245,1.7287,1.7291,1.7336,1.7363,1.74,1.7421,1.7426,1.7456,1.7455,1.7474,1.7482,1.7523,1.7541,1.7523,1.7592,1.7581,1.7586,1.7579,1.7583,1.7586,1.7582,1.7521,0,0,0,0,0,1.7249,1.728,1.7315,1.7351,1.7365,1.7391,1.741,1.742,1.745,1.7461,1.7485,1.7513,1.7544,1.7565,1.7595,1.764,1.7648,1.7658,1.7661,1.7663,1.7667,1.7693,1.7698,1.7643,1.7643,1.7643,0,0,1.7258,1.7285,1.7303,1.7351,1.7374,1.7406,1.74,1.7434,1.7458,1.7466,1.7508,1.7526,1.7558,1.7601,1.7622,1.7617,1.7684,1.7667,1.7668,1.7671,1.7696,1.7701,1.7706,1.7645,1.7645,1.7644,0,0,1.729,1.7313,1.7347,1.737,1.7405,1.7422,1.743,1.7466,1.7478,1.752,1.7527,1.7555,1.7609,1.7632,1.7651,1.7693,1.7697,1.7702,1.7718,1.7743,1.7747,1.7751,1.7767,1.7772,1.7706,1.7706,1.7706,0,1.7297,1.7345,1.7363,1.7397,1.7418,1.7428,1.7462,1.7483,1.7526,1.754,1.7534,1.7603,1.7625,1.7674,1.7685,1.7699,1.7709,1.7698,1.7745,1.7749,1.7753,1.7769,1.7774,1.7706,1.7706,1.7706,1.7706,0,1.7352,1.7386,1.7408,1.7451,1.7474,1.7507,1.753,1.7552,1.756,1.7578,1.762,1.7647,1.7684,1.7697,1.7705,1.7748,1.7744,1.7741,1.7731,1.7759,1.7774,1.7779,1.7707,1.7707,1.7707,1.7707,0,0,1.7384,1.7436,1.7444,1.7463,1.7503,1.7529,1.7563,1.76,1.7618,1.7647,1.7677,1.7722,1.772,1.7742,1.7752,1.7774,1.7807,1.7769,1.777,1.7776,1.7857,1.7859,1.7866,1.7809,1.781,1.7811,1.7854,0,1.7422,1.7484,1.7501,1.7553,1.7584,1.7594,1.7624,1.7651,1.7668,1.7697,1.7715,1.7748,1.7743,1.7756,1.7778,1.7798,1.7823,1.7795,1.7837,1.7838,1.783,1.7873,1.7876,1.7915,1.786,1.7861,1.7862,0,1.7474,1.7506,1.7561,1.7598,1.7611,1.7638,1.7674,1.7701,1.7732,1.7743,1.7767,1.7776,1.7812,1.7799,1.7849,1.7829,1.7847,1.786,1.7862,1.7867,1.7852,1.7881,1.7928,1.7934,1.7871,1.787,1.7869,0,1.7494,1.7549,1.759,1.7606,1.7649,1.7668,1.7686,1.7716,1.7738,1.7768,1.7783,1.7816,1.7835,1.7861,1.788,1.7868,1.7928,1.7916,1.7939,1.7938,1.7951,1.7951,1.8003,1.7961,1.7961,1.7961,1.7961,0,1.7535,1.7569,1.7599,1.7625,1.7663,1.7682,1.7719,1.7738,1.7765,1.7794,1.7803,1.783,1.7852,1.7882,1.7896,1.7935,1.7943,1.7953,1.7957,1.7953,1.7952,1.7966,1.7964,1.7962,1.7962,1.7962,1.7962,0,1.7563,1.7585,1.763,1.7667,1.7677,1.7704,1.7735,1.776,1.7777,1.7814,1.7824,1.7851,1.7886,1.7907,1.7951,1.7961,1.8005,1.8007,1.7995,1.7997,1.8018,1.8017,1.8083,1.8093,1.8043,1.8043,1.8044,0,1.7589,1.7615,1.7655,1.7676,1.7695,1.7727,1.775,1.7769,1.7791,1.7829,1.7849,1.7886,1.7916,1.7972,1.7996,1.803,1.8033,1.8054,1.8038,1.8034,1.8035,1.8034,1.8037,1.8057,1.8057,1.8058,1.8058,0,1.7633,1.7642,1.7674,1.771,1.7736,1.7765,1.7793,1.7809,1.7833,1.7858,1.7895,1.7919,1.7965,1.8001,1.8037,1.8056,1.8061,1.8063,1.807,1.8067,1.806,1.8065,1.8004,1.8061,1.8061,1.8061,1.8061,1.8061,1.7661,1.7686,1.7718,1.7753,1.7777,1.7803,1.7829,1.785,1.7881,1.7921,1.793,1.7969,1.7999,1.8049,1.8069,1.8099,1.8096,1.8106,1.8108,1.8111,1.8112,1.8054,1.8106,1.8106,1.8105,1.8105,1.8105,0,1.7707,1.7728,1.776,1.78,1.7828,1.7831,1.7863,1.7886,1.792,1.7949,1.7978,1.8021,1.8056,1.8083,1.8119,1.8138,1.8142,1.8147,1.8146,1.8151,1.8113,1.8104,1.8144,1.8144,1.8144,1.8144,1.8144,1.8144,1.7734,1.7776,1.7789,1.7843,1.7863,1.7903,1.7921,1.7945,1.7968,1.8016,1.8045,1.8062,1.809,1.8128,1.8161,1.8167,1.8181,1.8186,1.8193,1.8157,1.8153,1.8149,1.8141,1.8188,1.8188,1.8229,1.8229,1.8229]}]]